CHINASAT 9A (ZX 9A) (42763 NORAD) Tracking and Keplerian Element Data

This shows tracking and keplerian element data for the satellite.

Feedback or suggestion? Click here.




ElementValue
Catalog42763
NameCHINASAT 9A (ZX 9A)
Epoch Orbit590
Epoch Day323.23962076
Epoch Year2018
RAAN107.3302
Inclination0.062
Eccentricity0.0001975
Argument of Perigee11.2479
Mean Anonmoly127.3892
Mean Motion1.00271258
Decay Rate-3.03E-06
L11 42763U 17035A 18323.23962076 -.00000303 00000-0 00000+0 0 9996
L22 42763 0.0620 107.3302 0001975 11.2479 127.3892 1.00271258 5906

Live tracking and technical data element details for CHINASAT 9A (ZX 9A) (NORAD 42763). CHINASAT 9A (ZX 9A) can be tracked NOW for your location showing map with azimuth and elevation plus other details from your city location.

Track the satellite on the map from your city or location and see movement details for azimuth, elevation, latitude, longitude, range, height, and movement on the map or in text.







IsCatalogInMostPopularTable: catalog: 42763, numindb: 110
Update: records affected: 1



GetName: 42763 CHINASAT 9A (ZX 9A)

Hit Count: updated at: Mon, 19 Nov 2018 10:59:07 GMT